Jaffrey, NH

1:21 AM EDT on June 28, 2017 (GMT -0400)
Jaffrey Airport-Silver Ranch

Weather History for KAFN - September, 2013

Change the Weather History Date:

Sunday, September 1, 2013

  Actual Average Record
Temperature  
Mean Temperature 72 °F -  
Max Temperature 79 °F 73 °F 91 °F (2010)
Min Temperature 66 °F 51 °F 39 °F (2002)
Cooling Degree Days 8    
Growing Degree Days 22 (Base 50)    
Moisture  
Dew Point 68 °F    
Average Humidity 86    
Maximum Humidity 94    
Minimum Humidity 65    
Precipitation  
Precipitation 0.16 in - - ()
Sea Level Pressure  
Sea Level Pressure 29.88 in    
Wind  
Wind Speed 3 mph (SSW)    
Max Wind Speed 8 mph    
Max Gust Speed 17 mph    
Visibility 7 miles    
Events Rain , Thunderstorm    
Averages and records for this station are not official NWS values.
T = Trace of Precipitation, MM = Missing Value Source: NWS Daily Summary

Daily Weather History Graph

Daily Weather History Graph

Search for Another Location

Airport or City:

Trip Planner

Search our weather history database for the weather conditions in past years. The results will help you decide how hot, cold, wet, or windy it might be!

Date:

Astronomy

Sep. 01, 2013 Rise Set
Actual Time 6:12 AM EDT 7:22 PM EDT
Civil Twilight 5:43 AM EDT 7:51 PM EDT
Nautical Twilight 5:08 AM EDT 8:25 PM EDT
Astronomical Twilight 4:32 AM EDT 9:02 PM EDT
Moon 2:28 AM EDT (9/1) 5:00 PM EDT (9/1)
Length of Visible Light 14h 07m
Length of Day
13h 09m
Waning Crescent, 14% of the Moon is Illuminated
Sep 1
Waning Crescent
Sep 5
New
Sep 12
First Quarter
Sep 19
Full
Sep 26
Last Quarter

Hourly Weather History & Observations

Time (EDT) Temp. Dew Point Humidity Pressure Visibility Wind Dir Wind Speed Gust Speed Precip Events Conditions
12:52 AM 72.0 °F 70.0 °F 93% 29.85 in 5.0 mi SW 5.8 mph - N/A   Overcast
1:52 AM 72.0 °F 69.1 °F 91% 29.83 in 6.0 mi Calm Calm - N/A   Overcast
2:52 AM 71.1 °F 69.1 °F 93% 29.84 in 5.0 mi WSW 4.6 mph - 0.00 in   Overcast
3:35 AM 71.6 °F 66.2 °F 83% 29.86 in 10.0 mi Variable 6.9 mph 17.3 mph N/A   Mostly Cloudy
3:44 AM 71.6 °F 64.4 °F 78% 29.85 in 10.0 mi WSW 6.9 mph - N/A   Mostly Cloudy
3:52 AM 70.0 °F 64.9 °F 84% 29.85 in 10.0 mi SW 6.9 mph - N/A   Mostly Cloudy
4:52 AM 68.0 °F 64.0 °F 87% 29.85 in 10.0 mi SW 3.5 mph - N/A   Partly Cloudy
5:52 AM 66.9 °F 64.0 °F 90% 29.86 in 10.0 mi Calm Calm - N/A   Clear
6:52 AM 66.9 °F 64.0 °F 90% 29.88 in 10.0 mi South 3.5 mph - N/A   Partly Cloudy
7:52 AM 68.0 °F 64.9 °F 90% 29.89 in 10.0 mi SSW 5.8 mph - N/A   Mostly Cloudy
8:52 AM 70.0 °F 66.0 °F 87% 29.89 in 10.0 mi Variable 4.6 mph - N/A   Clear
9:17 AM 71.6 °F 66.2 °F 83% 29.89 in 10.0 mi South 4.6 mph - N/A   Scattered Clouds
9:52 AM 73.0 °F 66.9 °F 81% 29.90 in 10.0 mi Calm Calm - N/A   Partly Cloudy
10:52 AM 73.9 °F 66.9 °F 79% 29.91 in 10.0 mi SSE 4.6 mph - N/A   Overcast
11:02 AM 73.4 °F 66.2 °F 78% 29.91 in 10.0 mi South 8.1 mph - N/A   Overcast
11:52 AM 73.9 °F 69.1 °F 85% 29.91 in 10.0 mi Variable 3.5 mph - 0.03 in Rain Light Rain
12:42 PM 77.0 °F 68.0 °F 74% 29.89 in 10.0 mi Calm Calm - N/A   Mostly Cloudy
12:52 PM 77.0 °F 68.0 °F 74% 29.88 in 10.0 mi Calm Calm - N/A   Mostly Cloudy
1:19 PM 78.8 °F 66.2 °F 65% 29.89 in 10.0 mi Calm Calm - N/A   Mostly Cloudy
1:44 PM 78.8 °F 66.2 °F 65% 29.89 in 10.0 mi South 4.6 mph - N/A   Overcast
1:52 PM 79.0 °F 66.9 °F 66% 29.88 in 10.0 mi Calm Calm - N/A   Mostly Cloudy
2:52 PM 75.9 °F 71.1 °F 85% 29.88 in 6.0 mi Calm Calm - 0.02 in Rain Light Rain
3:16 PM 77.0 °F 71.6 °F 83% 29.88 in 9.0 mi Calm Calm - 0.00 in Rain Light Rain
3:52 PM 78.1 °F 70.0 °F 76% 29.86 in 10.0 mi SSW 4.6 mph - 0.00 in   Partly Cloudy
4:52 PM 77.0 °F 70.0 °F 79% 29.87 in 10.0 mi Calm Calm - N/A   Partly Cloudy
5:52 PM 75.0 °F 70.0 °F 84% 29.88 in 8.0 mi SSW 5.8 mph - 0.00 in Rain , Thunderstorm Light Rain
6:13 PM 73.4 °F 69.8 °F 88% 29.88 in 9.0 mi Calm Calm - 0.00 in   Partly Cloudy
6:52 PM 73.0 °F 70.0 °F 90% 29.87 in 6.0 mi Calm Calm - 0.00 in   Clear
7:52 PM 72.0 °F 70.0 °F 93% 29.89 in 5.0 mi Calm Calm - N/A   Scattered Clouds
8:45 PM 71.6 °F 69.8 °F 94% 29.90 in 4.0 mi Calm Calm - N/A   Mostly Cloudy
8:52 PM 71.1 °F 69.1 °F 93% 29.89 in 4.0 mi Calm Calm - N/A   Mostly Cloudy
9:10 PM 71.6 °F 69.8 °F 94% 29.89 in 4.0 mi Calm Calm - N/A   Mostly Cloudy
9:19 PM 71.6 °F 69.8 °F 94% 29.89 in 1.5 mi Calm Calm - 0.08 in Rain Heavy Rain
9:30 PM 71.6 °F 69.8 °F 94% 29.89 in 3.0 mi Calm Calm - 0.10 in Rain Light Rain
9:52 PM 72.0 °F 69.1 °F 91% 29.89 in 7.0 mi South 4.6 mph - 0.10 in   Mostly Cloudy
10:43 PM 69.8 °F 68.0 °F 94% 29.90 in 3.0 mi Calm Calm - 0.01 in   Scattered Clouds
10:45 PM 69.8 °F 68.0 °F 94% 29.90 in 2.5 mi Calm Calm - 0.01 in   Mostly Cloudy
10:52 PM 70.0 °F 68.0 °F 93% 29.90 in 3.0 mi Calm Calm - 0.01 in   Mostly Cloudy
11:25 PM 71.6 °F 69.8 °F 94% 29.90 in 6.0 mi Calm Calm - N/A   Overcast
11:39 PM 71.6 °F 69.8 °F 94% 29.90 in 4.0 mi Calm Calm - N/A   Overcast
11:52 PM 71.1 °F 69.1 °F 93% 29.90 in 4.0 mi Calm Calm - N/A   Overcast